Starlink 11401

operational
NORAD ID: 61876 Int'l Des: 2024-204 Owner: SPXS Country: US Constellation: starlink
LEOCIRCULAR

About Starlink 11401

Description loading...

Live Position

Loading 3D Globe...

Upcoming Passes

Altitude History

Altitude vs Time

uPlot chart will show altitude changes over time

Two-Line Element Set

1 61876U 24204C 25303.63158331 .00001371 00000-0 16170-4 0 9994
2 61876 53.1581 277.6920 0001568 69.8153 290.3034 15.69720788 56485
Epoch: Oct 30, 2025 • Age: 15 hours

Current Status

Altitude 364.4 km
Velocity 7.69 km/s
Sub-Earth Point -17.02°S, 126.35°E
Launch Date Nov 9, 2024
Age 0.9 years
Type internet

Technical Details

Classification Payload
Mass 960.00 kg
Dry Mass 910.00 kg
Total Mass 960.00 kg
Length 0.30 m
Diameter 4.10 m
Span 29.00 m
Shape Box + pan
Manufacturer SPXS
Bus Type Starlink V2MD
Phase Status In Orbit
Owner/State SPXS/US

Large Constellations

Loading constellations...